DW5595 Weather Reports


Display with metric or nautical units.
time (UTC)temp
F
wind
direction
speed
MPH
gust
MPH
rain 1hr
in
rain 24hr
in
rain mn
in
humidity
%
barometer
mb
20260831144523 79 86 0.0 2.0 0.00 0.00 0.00 81 1021.7
20260831143008 78 330 0.0 3.0 0.00 0.00 0.00 84 1021.6
20260831141531 77 195 0.0 0.0 0.00 0.00 0.00 86 1021.6
20260831140032 75 321 0.0 2.0 0.00 0.00 0.00 89 1021.6
20260831134528 73 104 0.0 0.0 0.00 0.00 0.00 94 1021.6
20260831133020 71 105 0.0 0.0 0.00 0.00 0.00 97 1021.5
20260831131517 70 105 0.0 0.0 0.00 0.00 0.00 97 1021.6
20260831130010 68 22 0.0 0.0 0.00 0.00 0.00 97 1021.6
20260831124510 67 22 0.0 0.0 0.00 0.00 0.00 97 1021.7
20260831123030 65 146 0.0 2.0 0.00 0.00 0.00 97 1021.4
20260831121528 64 146 0.0 0.0 0.00 0.00 0.00 97 1021.3
20260831120032 64 146 0.0 0.0 0.00 0.00 0.00 97 1021.4
20260831114526 63 146 0.0 0.0 0.00 0.00 0.00 96 1021.5
20260831113023 63 146 0.0 0.0 0.00 0.00 0.00 96 1021.4
20260831111526 63 146 0.0 0.0 0.00 0.00 0.00 96 1021.4
20260831110012 63 146 0.0 0.0 0.00 0.00 0.00 96 1021.3
20260831104539 63 146 0.0 0.0 0.00 0.00 0.00 96 1021.1
20260831103052 64 146 0.0 0.0 0.00 0.00 0.00 96 1020.9
20260831101530 64 146 0.0 0.0 0.00 0.00 0.00 96 1020.9
20260831100035 64 146 0.0 0.0 0.00 0.00 0.00 96 1020.7
20260831094527 64 146 0.0 0.0 0.00 0.00 0.00 96 1020.7
20260831093019 64 146 0.0 0.0 0.00 0.00 0.00 96 1020.6
20260831091511 64 146 0.0 0.0 0.00 0.00 0.00 96 1020.6
20260831090011 65 146 0.0 0.0 0.00 0.00 0.00 96 1020.6
20260831084508 65 146 0.0 0.0 0.00 0.00 0.00 96 1020.5
20260831083029 65 146 0.0 0.0 0.00 0.00 0.00 96 1020.6
20260831081525 65 146 0.0 0.0 0.00 0.00 0.00 96 1020.6
20260831080045 65 146 0.0 0.0 0.00 0.00 0.00 96 1020.6
20260831074519 65 146 0.0 0.0 0.00 0.00 0.00 96 1020.6
20260831073026 65 146 0.0 0.0 0.00 0.00 0.00 96 1020.6
20260831071512 66 146 0.0 0.0 0.00 0.00 0.00 95 1020.6
20260831070008 66 146 0.0 0.0 0.00 0.00 0.00 95 1020.7
20260831064533 66 146 0.0 0.0 0.00 0.00 0.00 96 1020.8
20260831063028 66 146 0.0 0.0 0.00 0.00 0.00 95 1020.9
20260831061528 66 146 0.0 0.0 0.00 0.00 0.00 95 1021.0
20260831060023 67 146 0.0 0.0 0.00 0.00 0.00 95 1021.0
20260831054523 67 146 0.0 0.0 0.00 0.00 0.00 95 1021.3
20260831053015 67 146 0.0 0.0 0.00 0.00 0.00 95 1021.1
20260831051534 67 146 0.0 0.0 0.00 0.00 0.00 95 1021.3
20260831050031 67 146 0.0 0.0 0.00 0.00 0.00 95 1021.2
20260831044531 68 146 0.0 0.0 0.00 0.00 0.00 95 1021.0
20260831043027 68 146 0.0 0.0 0.00 0.00 0.00 95 1021.1
20260831041523 68 146 0.0 0.0 0.00 0.00 0.00 95 1021.3
20260831040035 68 146 0.0 0.0 0.00 0.00 0.00 95 1021.6
20260831034512 68 146 0.0 0.0 0.00 0.00 0.00 94 1021.4
20260831033035 69 146 0.0 0.0 0.00 0.00 0.00 95 1021.8
20260831031540 69 146 0.0 3.0 0.00 0.00 0.00 94 1021.7
20260831030031 69 74 0.0 0.0 0.00 0.00 0.00 94 1021.6
20260831024542 70 74 0.0 0.0 0.00 0.00 0.00 94 1021.5
20260831023025 70 74 0.0 0.0 0.00 0.00 0.00 94 1021.7
20260831021518 70 23 0.0 0.0 0.00 0.00 0.00 94 1021.7
20260831020014 71 83 0.0 0.0 0.00 0.00 0.00 94 1021.7
20260831014534 71 83 0.0 0.0 0.00 0.00 0.00 93 1021.5
20260831013035 71 39 0.0 0.0 0.00 0.00 0.00 92 1021.4
20260831011530 72 148 0.0 0.0 0.00 0.00 0.00 92 1021.1
20260831010035 73 148 0.0 0.0 0.00 0.00 0.00 92 1021.0
20260831004527 73 148 0.0 0.0 0.00 0.00 0.00 91 1020.8
20260831003023 74 148 0.0 0.0 0.00 0.00 0.00 90 1020.7
20260831001517 75 148 0.0 0.0 0.00 0.00 0.00 88 1020.5
20260831000035 76 148 0.0 0.0 0.00 0.00 0.00 87 1020.5
20260830234544 76 148 0.0 0.0 0.00 0.00 0.00 85 1020.4
20260830233037 77 148 0.0 0.0 0.00 0.00 0.00 83 1020.4
20260830231530 78 148 0.0 0.0 0.00 0.00 0.00 80 1020.6
20260830230031 79 148 0.0 0.0 0.00 0.00 0.00 78 1020.5
20260830224523 79 148 0.0 0.0 0.00 0.00 0.00 79 1020.5
20260830223043 80 171 0.0 0.0 0.00 0.00 0.00 79 1020.3
20260830221534 80 170 0.0 0.0 0.00 0.00 0.00 77 1020.3
20260830220033 81 184 0.0 0.0 0.00 0.00 0.00 74 1020.5
20260830214530 82 184 0.0 1.0 0.00 0.00 0.00 73 1020.6
20260830213030 83 169 0.0 2.0 0.00 0.00 0.00 70 1020.5
20260830211532 83 198 0.0 2.0 0.00 0.00 0.00 68 1020.7
20260830210027 83 174 0.0 4.0 0.00 0.00 0.00 68 1020.6
20260830204542 83 142 0.0 2.0 0.00 0.00 0.00 71 1020.6
20260830203049 83 186 1.0 3.0 0.00 0.00 0.00 67 1020.8
20260830201538 82 145 0.0 3.0 0.00 0.00 0.00 67 1020.7
20260830200052 82 161 2.0 7.0 0.00 0.00 0.00 69 1020.8
20260830194529 83 156 1.0 6.0 0.00 0.00 0.00 72 1021.2
20260830193007 82 127 4.0 7.0 0.00 0.00 0.00 72 1021.5
20260830191507 82 140 1.0 7.0 0.00 0.00 0.00 75 1021.7
20260830190005 83 191 2.0 8.0 0.00 0.00 0.00 71 1021.8
20260830184517 83 159 1.0 5.0 0.00 0.00 0.00 72 1022.0
20260830183007 83 15 2.0 4.0 0.00 0.00 0.00 69 1022.2
20260830181507 83 138 1.0 5.0 0.00 0.00 0.00 72 1022.5
20260830180015 81 121 1.0 4.0 0.00 0.00 0.00 74 1022.7
20260830174508 80 243 0.0 3.0 0.00 0.00 0.00 73 1022.9
20260830173006 81 309 0.0 5.0 0.00 0.00 0.00 74 1022.9
20260830171506 81 330 2.0 5.0 0.00 0.00 0.00 76 1023.2
20260830170010 79 341 2.0 3.0 0.00 0.00 0.00 79 1023.6
20260830164528 77 138 1.0 3.0 0.00 0.00 0.00 83 1023.8
20260830163012 76 119 1.0 4.0 0.00 0.00 0.00 85 1024.0
20260830161509 76 154 1.0 3.0 0.00 0.00 0.00 85 1024.2
20260830160008 75 352 0.0 2.0 0.00 0.00 0.00 85 1024.1
20260830154513 75 18 1.0 2.0 0.00 0.00 0.00 86 1024.2
20260830153014 74 13 0.0 2.0 0.00 0.00 0.00 87 1024.1
20260830151513 74 11 2.0 3.0 0.00 0.00 0.00 88 1024.1
20260830150013 74 9 1.0 3.0 0.00 0.00 0.00 89 1024.2